Time,TemperatureF,DewpointF,PressureIn,WindDirection,WindDirectionDegrees,WindSpeedMPH,WindSpeedGustMPH,Humidity,HourlyPrecipIn,Conditions,Clouds,dailyrainin,SoftwareType,DateUTC
2013-05-04 00:00:00,33.0,21.0,-100.00,North,-999,-999.0,-999.0,60,-99.99,,,-99.99,,2013-05-04 06:00:00,
2013-05-04 00:42:00,33.0,21.0,-100.00,North,-999,-999.0,-999.0,60,-99.99,,,-99.99,,2013-05-04 06:42:00,
2013-05-04 00:52:00,33.0,21.0,-100.00,North,-999,-999.0,-999.0,60,-99.99,,,-99.99,,2013-05-04 06:52:00,
2013-05-04 01:00:00,34.0,22.0,-100.00,North,-999,-999.0,-999.0,60,-99.99,,,0.00,,2013-05-04 07:00:00,
2013-05-04 01:52:00,34.0,22.0,-100.00,North,-999,-999.0,-999.0,60,-99.99,,,0.00,,2013-05-04 07:52:00,
2013-05-04 02:00:00,33.0,21.0,-100.00,North,-999,-999.0,-999.0,60,-99.99,,,-99.99,,2013-05-04 08:00:00,
2013-05-04 03:00:00,32.0,20.0,-100.00,North,-999,-999.0,-999.0,60,-99.99,,,-99.99,,2013-05-04 09:00:00,
2013-05-04 04:00:00,32.0,20.0,-100.00,North,-999,-999.0,-999.0,60,-99.99,,,-99.99,,2013-05-04 10:00:00,
2013-05-04 05:00:00,31.0,20.0,-100.00,North,-999,-999.0,-999.0,61,-99.99,,,-99.99,,2013-05-04 11:00:00,
2013-05-04 06:00:00,31.0,19.0,-100.00,North,-999,-999.0,-999.0,62,-99.99,,,-99.99,,2013-05-04 12:00:00,
2013-05-04 07:00:00,32.0,21.0,-100.00,North,-999,-999.0,-999.0,63,-99.99,,,-99.99,,2013-05-04 13:00:00,
2013-05-04 08:00:00,34.0,23.0,-100.00,North,-999,-999.0,-999.0,63,-99.99,,,-99.99,,2013-05-04 14:00:00,
2013-05-04 09:00:00,36.0,25.0,-100.00,North,-999,-999.0,-999.0,63,-99.99,,,-99.99,,2013-05-04 15:00:00,
2013-05-04 10:00:00,39.0,27.0,-100.00,North,-999,-999.0,-999.0,63,-99.99,,,-99.99,,2013-05-04 16:00:00,
2013-05-04 11:00:00,44.0,32.0,-100.00,North,-999,-999.0,-999.0,62,-99.99,,,0.00,,2013-05-04 17:00:00,
2013-05-04 11:52:00,44.0,32.0,-100.00,North,-999,-999.0,-999.0,62,-99.99,,,0.00,,2013-05-04 17:52:00,
2013-05-04 12:00:00,47.0,35.0,-100.00,North,-999,-999.0,-999.0,62,-99.99,,,0.00,,2013-05-04 18:00:00,
2013-05-04 13:00:00,46.0,34.0,-100.00,North,-999,-999.0,-999.0,61,-99.99,,,0.00,,2013-05-04 19:00:00,
2013-05-04 13:52:00,46.0,34.0,-100.00,North,-999,-999.0,-999.0,61,-99.99,,,0.00,,2013-05-04 19:52:00,
2013-05-04 14:00:00,45.0,32.0,-100.00,North,-999,-999.0,-999.0,61,-99.99,,,-99.99,,2013-05-04 20:00:00,
2013-05-04 15:00:00,43.0,31.0,-100.00,North,-999,-999.0,-999.0,62,-99.99,,,0.00,,2013-05-04 21:00:00,
2013-05-04 16:00:00,41.0,28.0,-100.00,North,-999,-999.0,-999.0,61,-99.99,,,0.00,,2013-05-04 22:00:00,
2013-05-04 17:00:00,40.0,27.0,-100.00,North,-999,-999.0,-999.0,61,-99.99,,,0.00,,2013-05-04 23:00:00,
2013-05-04 18:00:00,36.0,24.0,-100.00,North,-999,-999.0,-999.0,61,-99.99,,,0.00,,2013-05-05 00:00:00,
2013-05-04 18:52:00,36.0,24.0,-100.00,North,-999,-999.0,-999.0,61,-99.99,,,0.00,,2013-05-05 00:52:00,
2013-05-04 19:00:00,35.0,23.0,-100.00,North,-999,-999.0,-999.0,61,-99.99,,,0.00,,2013-05-05 01:00:00,
2013-05-04 20:00:00,33.0,22.0,-100.00,North,-999,-999.0,-999.0,62,-99.99,,,0.00,,2013-05-05 02:00:00,
2013-05-04 21:00:00,32.0,21.0,-100.00,North,-999,-999.0,-999.0,62,-99.99,,,0.00,,2013-05-05 03:00:00,
2013-05-04 22:00:00,32.0,21.0,-100.00,North,-999,-999.0,-999.0,62,-99.99,,,0.00,,2013-05-05 04:00:00,
2013-05-04 23:00:00,32.0,20.0,-100.00,North,-999,-999.0,-999.0,62,-99.99,,,0.00,,2013-05-05 05:00:00,